DL8JF-13 Weather Reports


Display with metric or nautical units.
time (UTC)temp
F
wind
direction
speed
MPH
gust
MPH
rain 1hr
in
rain 24hr
in
rain mn
in
humidity
%
barometer
mb
20260507104852 58 0 0.0 0.0 0.00 0.00 0.00 54 1009.9
20260507103349 57 0 0.0 0.0 0.00 0.00 0.00 53 1009.7
20260507101850 57 0 0.0 0.0 0.00 0.00 0.00 54 1009.7
20260507100352 57 0 0.0 0.0 0.00 0.00 0.00 57 1009.5
20260507094849 56 0 0.0 0.0 0.00 0.00 0.00 57 1009.5
20260507093349 56 0 0.0 0.0 0.00 0.00 0.00 58 1009.4
20260507091849 55 0 0.0 0.0 0.00 0.00 0.00 60 1009.4
20260507090349 54 0 0.0 0.0 0.00 0.00 0.00 62 1009.3
20260507084852 53 0 0.0 0.0 0.00 0.00 0.00 63 1008.9
20260507083349 52 0 0.0 0.0 0.00 0.00 0.00 63 1009.0
20260507081849 51 0 0.0 0.0 0.00 0.00 0.00 65 1009.0
20260507080349 51 0 0.0 0.0 0.00 0.00 0.00 67 1008.9
20260507074852 50 0 0.0 0.0 0.00 0.00 0.00 70 1008.7
20260507073349 49 0 0.0 0.0 0.00 0.00 0.00 71 1008.6
20260507071852 48 0 0.0 0.0 0.00 0.00 0.00 72 1008.6
20260507070349 48 0 0.0 0.0 0.00 0.00 0.00 74 1008.0
20260507064852 48 0 0.0 0.0 0.00 0.00 0.00 74 1008.4
20260507063352 48 0 0.0 0.0 0.00 0.00 0.00 75 1008.3
20260507061852 47 0 0.0 0.0 0.00 0.00 0.00 76 1008.3
20260507060352 47 0 0.0 0.0 0.00 0.00 0.00 77 1008.1
20260507054852 46 0 0.0 0.0 0.00 0.00 0.00 77 1007.8
20260507053349 46 0 0.0 0.0 0.00 0.00 0.00 78 1007.7
20260507051849 46 0 0.0 0.0 0.00 0.00 0.00 77 1007.7
20260507050349 46 0 0.0 0.0 0.00 0.00 0.00 77 1007.3
20260507044849 46 0 0.0 0.0 0.00 0.00 0.00 78 1007.2
20260507043352 46 0 0.0 0.0 0.00 0.00 0.00 77 1006.9
20260507041852 46 0 0.0 0.0 0.00 0.00 0.00 77 1006.9
20260507040349 46 0 0.0 0.0 0.00 0.00 0.00 78 1006.7
20260507034849 46 0 0.0 0.0 0.00 0.00 0.00 78 1006.7
20260507033349 46 0 0.0 0.0 0.00 0.00 0.00 78 1006.7
20260507031850 46 0 0.0 0.0 0.00 0.00 0.00 78 1006.7
20260507030349 46 0 0.0 0.0 0.00 0.00 0.00 78 1006.2
20260507024849 46 0 0.0 0.0 0.00 0.00 0.00 77 1006.0
20260507023349 46 0 0.0 0.0 0.00 0.00 0.00 77 1005.9
20260507021852 46 0 0.0 0.0 0.00 0.00 0.00 77 1005.9
20260507020352 46 0 0.0 0.0 0.00 0.00 0.00 76 1005.8
20260507014852 47 0 0.0 0.0 0.00 0.00 0.00 75 1005.8
20260507013349 47 0 0.0 0.0 0.00 0.00 0.00 75 1005.7
20260507011852 47 0 0.0 0.0 0.00 0.00 0.00 75 1005.7
20260507010352 47 0 0.0 0.0 0.00 0.00 0.00 75 1005.6
20260507004849 47 0 0.0 0.0 0.00 0.00 0.00 75 1005.6
20260507003352 47 0 0.0 0.0 0.00 0.00 0.00 75 1005.6
20260507001849 47 0 0.0 0.0 0.00 0.00 0.00 75 1005.6
20260507000352 47 0 0.0 0.0 0.00 0.00 0.00 75 1005.4
20260506234852 47 0 0.0 0.0 0.00 0.00 0.00 75 1005.4
20260506233349 47 0 0.0 0.0 0.00 0.00 0.00 75 1005.5
20260506231852 47 0 0.0 0.0 0.00 0.00 0.00 75 1005.5
20260506230349 48 0 0.0 0.0 0.00 0.00 0.00 76 1005.4
20260506224852 48 0 0.0 0.0 0.00 0.00 0.00 76 1005.2
20260506223352 48 0 0.0 0.0 0.00 0.00 0.00 76 1005.0
20260506221852 48 0 0.0 0.0 0.00 0.00 0.00 76 1005.0
20260506220354 48 0 0.0 0.0 0.00 0.00 0.00 76 1005.0
20260506214850 49 0 0.0 0.0 0.00 0.00 0.00 76 1004.8
20260506213352 49 0 0.0 0.0 0.00 0.00 0.00 77 1004.8
20260506211852 49 0 0.0 0.0 0.00 0.00 0.00 77 1004.8
20260506210352 49 0 0.0 0.0 0.00 0.00 0.00 78 1004.5
20260506204849 49 0 0.0 0.0 0.00 0.00 0.00 78 1004.4
20260506203352 49 0 0.0 0.0 0.00 0.00 0.00 78 1004.3
20260506201849 49 0 0.0 0.0 0.00 0.00 0.00 78 1004.3
20260506200349 49 0 0.0 0.0 0.00 0.00 0.00 78 1004.2
20260506194849 49 0 0.0 0.0 0.00 0.00 0.00 78 1004.1
20260506193352 49 0 0.0 0.0 0.00 0.00 0.00 77 1003.8
20260506191852 50 0 0.0 0.0 0.00 0.00 0.00 78 1003.8
20260506190352 50 0 0.0 0.0 0.00 0.00 0.00 78 1003.7
20260506184849 50 0 0.0 0.0 0.00 0.00 0.00 78 1003.6
20260506183352 50 0 0.0 0.0 0.00 0.00 0.00 78 1003.2
20260506181852 50 0 0.0 0.0 0.00 0.00 0.00 78 1003.2
20260506180352 50 0 0.0 0.0 0.00 0.00 0.00 78 1003.1
20260506174849 50 0 0.0 0.0 0.00 0.00 0.00 77 1003.3
20260506173349 50 0 0.0 0.0 0.00 0.00 0.00 77 1003.1
20260506171852 50 0 0.0 0.0 0.00 0.00 0.00 77 1003.1
20260506170352 51 0 0.0 0.0 0.00 0.00 0.00 75 1002.8
20260506164852 51 0 0.0 0.0 0.00 0.00 0.00 74 1002.9
20260506163349 51 0 0.0 0.0 0.00 0.00 0.00 74 1002.9
20260506161849 51 0 0.0 0.0 0.00 0.00 0.00 73 1002.9
20260506160349 52 0 0.0 0.0 0.00 0.00 0.00 71 1003.0
20260506154849 52 0 0.0 0.0 0.00 0.00 0.00 68 1002.9
20260506153349 53 0 0.0 0.0 0.00 0.00 0.00 64 1003.0
20260506151852 53 0 0.0 0.0 0.00 0.00 0.00 61 1003.0
20260506150349 53 0 0.0 0.0 0.00 0.00 0.00 60 1003.0
20260506144852 53 0 0.0 0.0 0.00 0.00 0.00 62 1002.9
20260506143352 53 0 0.0 0.0 0.00 0.00 0.00 63 1003.1
20260506141852 54 0 0.0 0.0 0.00 0.00 0.00 63 1003.1
20260506140349 54 0 0.0 0.0 0.00 0.00 0.00 62 1003.1
20260506134849 54 0 0.0 0.0 0.00 0.00 0.00 60 1003.0
20260506133352 54 0 0.0 0.0 0.00 0.00 0.00 57 1002.9
20260506131849 54 0 0.0 0.0 0.00 0.00 0.00 57 1002.9
20260506130352 54 0 0.0 0.0 0.00 0.00 0.00 59 1002.6
20260506124849 54 0 0.0 0.0 0.00 0.00 0.00 58 1002.7
20260506123352 55 0 0.0 0.0 0.00 0.00 0.00 58 1002.4
20260506121849 55 0 0.0 0.0 0.00 0.00 0.00 59 1002.4
20260506120349 54 0 0.0 0.0 0.00 0.00 0.00 59 1002.5
20260506114852 54 0 0.0 0.0 0.00 0.00 0.00 60 1002.5
20260506113349 54 0 0.0 0.0 0.00 0.00 0.00 60 1002.4
20260506111849 53 0 0.0 0.0 0.00 0.00 0.00 60 1002.4
20260506110349 53 0 0.0 0.0 0.00 0.00 0.00 60 1002.3